TimeEDT,TemperatureF,Dew PointF,Humidity,Sea Level PressureIn,VisibilityMPH,Wind Direction,Wind SpeedMPH,Gust SpeedMPH,PrecipitationIn,Events,Conditions,WindDirDegrees,DateUTC
12:58 AM,67.1,57.4,71,30.21,10.0,ENE,1.2,-,N/A,,Clear,60,2013-06-21 04:58:00
1:58 AM,65.8,57.7,75,30.21,10.0,Calm,Calm,-,N/A,,Clear,0,2013-06-21 05:58:00
2:58 AM,64.4,57.6,78,30.21,10.0,North,1.2,-,N/A,,Clear,350,2013-06-21 06:58:00
3:58 AM,62.1,58.1,87,30.21,10.0,NW,2.3,-,N/A,,Clear,310,2013-06-21 07:58:00
4:58 AM,63.7,59.2,85,30.21,10.0,North,2.3,-,N/A,,Clear,360,2013-06-21 08:58:00
5:58 AM,61.5,56.5,83,30.22,7.0,Calm,Calm,-,N/A,Fog,Shallow Fog,0,2013-06-21 09:58:00
6:58 AM,61.3,56.5,84,30.22,10.0,North,2.3,-,N/A,,Partly Cloudy,350,2013-06-21 10:58:00
7:58 AM,65.8,60.6,83,30.23,10.0,North,1.2,-,N/A,,Partly Cloudy,360,2013-06-21 11:58:00
8:58 AM,71.2,59.4,66,30.22,7.0,Calm,Calm,-,N/A,,Clear,0,2013-06-21 12:58:00
9:58 AM,77.2,60.1,55,30.22,10.0,SSE,5.8,-,N/A,,Clear,150,2013-06-21 13:58:00
10:58 AM,79.5,58.6,49,30.24,10.0,South,6.9,-,N/A,,Clear,190,2013-06-21 14:58:00
11:58 AM,81.5,57.0,43,30.22,10.0,ESE,6.9,-,N/A,,Clear,120,2013-06-21 15:58:00
12:58 PM,83.5,55.9,39,30.23,10.0,Variable,2.3,-,N/A,,Partly Cloudy,0,2013-06-21 16:58:00
1:58 PM,84.6,55.9,37,30.22,10.0,SE,9.2,-,N/A,,Partly Cloudy,140,2013-06-21 17:58:00
2:58 PM,85.1,58.5,40,30.19,10.0,Variable,3.5,-,N/A,,Partly Cloudy,0,2013-06-21 18:58:00
3:58 PM,85.3,60.4,43,30.17,10.0,SSE,5.8,-,N/A,,Scattered Clouds,160,2013-06-21 19:58:00
4:58 PM,85.5,60.4,43,30.16,10.0,South,10.4,-,N/A,,Scattered Clouds,170,2013-06-21 20:58:00
5:58 PM,86.0,60.8,43,30.15,10.0,SE,4.6,-,N/A,,Scattered Clouds,140,2013-06-21 21:58:00
6:58 PM,83.3,61.7,48,30.15,10.0,Variable,4.6,-,N/A,,Scattered Clouds,0,2013-06-21 22:58:00
7:58 PM,81.9,61.2,49,30.16,10.0,South,4.6,-,N/A,,Mostly Cloudy,180,2013-06-21 23:58:00
8:58 PM,79.5,61.7,54,30.14,10.0,South,4.6,-,N/A,,Mostly Cloudy,190,2013-06-22 00:58:00
9:58 PM,78.1,61.5,57,30.12,10.0,SSE,6.9,-,N/A,,Mostly Cloudy,150,2013-06-22 01:58:00
10:58 PM,76.8,63.0,62,30.12,10.0,SSE,10.4,-,N/A,,Mostly Cloudy,160,2013-06-22 02:58:00
11:58 PM,76.5,63.1,63,30.11,10.0,SSE,10.4,-,N/A,,Mostly Cloudy,150,2013-06-22 03:58:00